Meteo pe oră la Czyzewo

Astăzi, 14 Aprilie, Miercuri

Timp Temperatura Precipitaţii Vânt Presiune Umiditate
00:00 +3°C° 0 mm 2 m/s 759 mmHg 69%
01:00 +3°C° 0 mm 2 m/s 758 mmHg 71%
02:00 +3°C° 0 mm 2 m/s 758 mmHg 72%
03:00 +3°C° 0 mm 2 m/s 758 mmHg 73%
04:00 +3°C° 0 mm 2 m/s 758 mmHg 74%
05:00 +3°C° 0 mm 2 m/s 758 mmHg 73%
06:00 +2°C° 0 mm 3 m/s 758 mmHg 71%
07:00 +2°C° 0 mm 3 m/s 758 mmHg 71%
08:00 +3°C° 0 mm 3 m/s 758 mmHg 67%
09:00 +4°C° 0 mm 4 m/s 758 mmHg 62%
10:00 +5°C° 0 mm 4 m/s 758 mmHg 58%
11:00 +5°C° 0 mm 4 m/s 758 mmHg 56%
12:00 +6°C° 0 mm 5 m/s 758 mmHg 55%
13:00 +6°C° 0 mm 5 m/s 758 mmHg 53%
14:00 +5°C° 0.1 mm 6 m/s 757 mmHg 56%
15:00 +4°C° 0.1 mm 6 m/s 757 mmHg 59%
16:00 +4°C° 0.1 mm 6 m/s 757 mmHg 63%
17:00 +3°C° 0 mm 6 m/s 758 mmHg 64%
18:00 +3°C° 0 mm 6 m/s 758 mmHg 65%
19:00 +2°C° 0 mm 6 m/s 758 mmHg 67%
20:00 +1°C° 0.1 mm 6 m/s 758 mmHg 72%
21:00 +1°C° 0.1 mm 6 m/s 758 mmHg 78%
22:00 0°C° 0.1 mm 5 m/s 758 mmHg 84%
23:00 -1°C° 0.2 mm 6 m/s 758 mmHg 87%

Mâine, 15 Aprilie, Joi

Timp Temperatura Precipitaţii Vânt Presiune Umiditate
00:00 -1°C° 0.2 mm 6 m/s 757 mmHg 91%
01:00 -1°C° 0.2 mm 6 m/s 757 mmHg 95%
02:00 -1°C° 0.3 mm 6 m/s 757 mmHg 95%
03:00 -1°C° 0.3 mm 6 m/s 757 mmHg 96%
04:00 -1°C° 0.3 mm 6 m/s 756 mmHg 96%
05:00 -1°C° 0.7 mm 6 m/s 756 mmHg 96%
06:00 -1°C° 0.7 mm 6 m/s 756 mmHg 96%
07:00 -1°C° 0.7 mm 6 m/s 756 mmHg 96%
08:00 -1°C° 0.6 mm 6 m/s 756 mmHg 96%
09:00 -1°C° 0.6 mm 6 m/s 756 mmHg 97%
10:00 -1°C° 0.6 mm 6 m/s 756 mmHg 97%
11:00 -1°C° 0.7 mm 6 m/s 756 mmHg 97%
12:00 -1°C° 0.7 mm 6 m/s 756 mmHg 97%
13:00 -1°C° 0.7 mm 6 m/s 756 mmHg 97%
14:00 +1°C° 0.6 mm 6 m/s 756 mmHg 97%
15:00 +1°C° 0.6 mm 5 m/s 756 mmHg 97%
16:00 +1°C° 0.6 mm 5 m/s 756 mmHg 97%
17:00 +2°C° 0.5 mm 5 m/s 756 mmHg 96%
18:00 +2°C° 0.5 mm 5 m/s 756 mmHg 95%
19:00 +2°C° 0.5 mm 5 m/s 756 mmHg 94%
20:00 +4°C° 0.1 mm 4 m/s 756 mmHg 92%
21:00 +4°C° 0.1 mm 4 m/s 756 mmHg 91%
22:00 +4°C° 0.1 mm 4 m/s 756 mmHg 90%
23:00 +4°C° 0 mm 4 m/s 755 mmHg 90%

Poimâine, 16 Aprilie, Vineri

Timp Temperatura Precipitaţii Vânt Presiune Umiditate
00:00 +4°C° 0 mm 4 m/s 755 mmHg 90%
01:00 +3°C° 0 mm 4 m/s 755 mmHg 90%
02:00 +3°C° 0 mm 4 m/s 755 mmHg 89%
03:00 +3°C° 0 mm 4 m/s 755 mmHg 88%
04:00 +1°C° 0 mm 4 m/s 755 mmHg 87%
05:00 +1°C° 0.1 mm 4 m/s 755 mmHg 88%
06:00 +1°C° 0.1 mm 4 m/s 755 mmHg 89%
07:00 +1°C° 0.1 mm 5 m/s 755 mmHg 90%
08:00 +1°C° 0.1 mm 5 m/s 755 mmHg 91%
09:00 +1°C° 0.1 mm 5 m/s 755 mmHg 92%
10:00 +3°C° 0.1 mm 4 m/s 756 mmHg 94%
11:00 +3°C° 0.1 mm 4 m/s 756 mmHg 93%
12:00 +4°C° 0.1 mm 4 m/s 756 mmHg 92%
13:00 +4°C° 0.1 mm 4 m/s 756 mmHg 91%
14:00 +4°C° 0 mm 4 m/s 756 mmHg 91%
15:00 +4°C° 0 mm 4 m/s 756 mmHg 92%
16:00 +4°C° 0 mm 4 m/s 756 mmHg 92%
17:00 +5°C° 0 mm 4 m/s 756 mmHg 93%
18:00 +5°C° 0 mm 4 m/s 756 mmHg 94%
19:00 +5°C° 0 mm 4 m/s 757 mmHg 95%
20:00 +5°C° 0 mm 4 m/s 757 mmHg 95%
21:00 +5°C° 0 mm 4 m/s 757 mmHg 96%
22:00 +5°C° 0 mm 4 m/s 757 mmHg 96%
23:00 +5°C° 0 mm 4 m/s 757 mmHg 96%

17 Aprilie, Sâmbătă

Timp Temperatura Precipitaţii Vânt Presiune Umiditate
00:00 +5°C° 0 mm 4 m/s 756 mmHg 96%
01:00 +5°C° 0 mm 4 m/s 756 mmHg 96%
02:00 +5°C° 0 mm 4 m/s 756 mmHg 96%
03:00 +5°C° 0 mm 4 m/s 756 mmHg 96%
04:00 +5°C° 0 mm 4 m/s 756 mmHg 96%
05:00 +5°C° 0.1 mm 3 m/s 756 mmHg 96%
06:00 +5°C° 0.1 mm 3 m/s 756 mmHg 95%
07:00 +5°C° 0.1 mm 3 m/s 756 mmHg 95%
08:00 +7°C° 0 mm 3 m/s 756 mmHg 93%
09:00 +8°C° 0 mm 3 m/s 757 mmHg 90%
10:00 +8°C° 0 mm 3 m/s 757 mmHg 87%
11:00 +10°C° 0.1 mm 4 m/s 757 mmHg 81%
12:00 +11°C° 0.1 mm 4 m/s 756 mmHg 75%
13:00 +12°C° 0.1 mm 4 m/s 756 mmHg 69%
14:00 +12°C° 0.3 mm 4 m/s 756 mmHg 69%
15:00 +12°C° 0.3 mm 4 m/s 756 mmHg 69%
16:00 +12°C° 0.3 mm 4 m/s 756 mmHg 68%
17:00 +11°C° 0.2 mm 4 m/s 756 mmHg 74%
18:00 +10°C° 0.2 mm 3 m/s 756 mmHg 79%
19:00 +8°C° 0.2 mm 2 m/s 756 mmHg 84%
20:00 +8°C° 0 mm 2 m/s 757 mmHg 86%
21:00 +7°C° 0 mm 2 m/s 757 mmHg 89%
22:00 +7°C° 0 mm 2 m/s 757 mmHg 91%
23:00 +7°C° 0 mm 2 m/s 757 mmHg 91%

18 Aprilie, Duminică

Timp Temperatura Precipitaţii Vânt Presiune Umiditate
00:00 +6°C° 0 mm 2 m/s 757 mmHg 92%
01:00 +6°C° 0 mm 2 m/s 757 mmHg 93%
02:00 +6°C° 0 mm 2 m/s 757 mmHg 93%
03:00 +6°C° 0 mm 2 m/s 757 mmHg 94%
04:00 +5°C° 0 mm 2 m/s 757 mmHg 94%
05:00 +6°C° 0 mm 2 m/s 757 mmHg 91%
06:00 +7°C° 0 mm 2 m/s 757 mmHg 89%
07:00 +8°C° 0 mm 2 m/s 757 mmHg 86%
08:00 +9°C° 0 mm 1 m/s 757 mmHg 85%
09:00 +9°C° 0 mm 1 m/s 757 mmHg 83%
10:00 +9°C° 0 mm 1 m/s 758 mmHg 82%
11:00 +11°C° 0 mm 1 m/s 758 mmHg 77%
12:00 +12°C° 0 mm 1 m/s 757 mmHg 71%
13:00 +13°C° 0 mm 1 m/s 757 mmHg 65%
14:00 +13°C° 0.1 mm 1 m/s 757 mmHg 65%
15:00 +14°C° 0.1 mm 1 m/s 757 mmHg 64%
16:00 +14°C° 0.1 mm 1 m/s 757 mmHg 64%
17:00 +13°C° 0.1 mm 2 m/s 757 mmHg 69%
18:00 +12°C° 0.1 mm 2 m/s 757 mmHg 74%
19:00 +10°C° 0.1 mm 2 m/s 757 mmHg 79%
20:00 +10°C° 0 mm 2 m/s 757 mmHg 82%
21:00 +9°C° 0 mm 2 m/s 757 mmHg 86%
22:00 +9°C° 0 mm 3 m/s 757 mmHg 89%
23:00 +8°C° 0 mm 3 m/s 757 mmHg 90%

19 Aprilie, Luni

Timp Temperatura Precipitaţii Vânt Presiune Umiditate
00:00 +8°C° 0 mm 3 m/s 757 mmHg 91%
01:00 +8°C° 0 mm 3 m/s 757 mmHg 92%
02:00 +8°C° 0.1 mm 3 m/s 757 mmHg 93%
03:00 +8°C° 0.1 mm 3 m/s 757 mmHg 94%
04:00 +8°C° 0.1 mm 3 m/s 757 mmHg 95%
05:00 +7°C° 0 mm 4 m/s 757 mmHg 91%
06:00 +7°C° 0 mm 4 m/s 757 mmHg 87%
07:00 +8°C° 0 mm 5 m/s 757 mmHg 83%
08:00 +8°C° 0 mm 5 m/s 757 mmHg 78%
09:00 +9°C° 0 mm 5 m/s 757 mmHg 72%
10:00 +10°C° 0 mm 6 m/s 757 mmHg 66%
11:00 +11°C° 0 mm 6 m/s 757 mmHg 65%
12:00 +11°C° 0 mm 6 m/s 757 mmHg 63%
13:00 +11°C° 0 mm 6 m/s 757 mmHg 61%
14:00 +13°C° 0 mm 6 m/s 757 mmHg 61%
15:00 +13°C° 0 mm 6 m/s 756 mmHg 60%
16:00 +13°C° 0 mm 6 m/s 756 mmHg 60%
17:00 +12°C° 0 mm 5 m/s 756 mmHg 65%
18:00 +10°C° 0 mm 5 m/s 756 mmHg 70%
19:00 +10°C° 0 mm 4 m/s 756 mmHg 74%
20:00 +10°C° 0 mm 4 m/s 756 mmHg 76%
21:00 +10°C° 0 mm 4 m/s 756 mmHg 77%
22:00 +8°C° 0 mm 4 m/s 756 mmHg 79%
23:00 +8°C° 0 mm 4 m/s 756 mmHg 79%
Arată mai mult

Formular de consimțământ

Meteoprog și furnizorii noștri de servicii pot stoca și accesa date personale, precum cookies, identificatori de dispozitiv sau alte tehnologii similare pe dispozitivul dumneavoastră și procesa astfel de date pentru a personaliza conținutul și reclamele, dar și pentru a oferi caracteristici de social media și pentru a analiza traficul.

  • Stocarea și/sau accesarea informațiilor pe dispozitivul dumneavoastră

    Cookies, identificatori de dispozitiv sau alte informații pot fi stocate sau accesate pe dispozitiv în scopurile indicate mai sus.

  • Reclame și conținut personalizat, evaluarea reclamelor și a conținutului, informații despre audiențe și dezvoltarea produselor

    Reclamele și conținutul pot fi personalizate pe baza unui profil. Pot fi adăugate date suplimentare pentru a personaliza mai bine reclamele și conținutul. Performanța reclamelor și conținutului poate fi măsurată. Pot fi obținute informații despre utilizatorii care au văzut reclamele și conținutul. Aceste date pot fi utilizate pentru a dezvolta sau îmbunătăți experiența utilizatorilor, sistemele și software-ul.

Dând clic pe ‘Sunt de acord’, permiteți utilizarea cookie-urilor menționate, a identificatorilor de dispozitiv, balizelor web sau altor tehnologii similare. Setările pot fi modificate din browser-ul dispozitivului dumneavoastră.

În anumite scopuri, interesele legitime pot prima asupra consimțământului. Puteți citi mai multe informații în acest sens în Politica privind Confidențialitatea Datelor și Cookie.